Weather in Vladimirskyy Tupik

Russia / Smolensk Oblast     55°41′34″N   33°18′19″E
temp.,
°C
wind,
m/s
gust,
m/s
humid.,
%
clouds,
%
prec.,
mm/h
press.,
hPa
HPBL,
m
17 april, sat
sat1700:00+10ene51287100 0.4 1019776
03:00+8ene5119297 0.5 1019583
06:00+8ene41094100 0.2 1020638
09:00+9ene4888100 0.2 1021609
12:00+10ene4686100 0.0 1022684
15:00+11ne4980100 0.1 1021959
18:00+13ene61267100 0.0 10191296
21:00+10ene6147364 0.0 1020904
18 april, sun
sun1800:00+8ne5147397 0.0 1020652
03:00+6ne5137195 0.0 1020519
06:00+6ne51274100 0.0 1020607
09:00+6ene51073100 0.0 1021739
12:00+8ene51070100 0.0 10211026
15:00+7e41182100 0.1 1023967
18:00+6e5138797 0.1 1023933
21:00+6e51184100 0.1 1023919
19 april, mon
mon1900:00+6ene4889100 0.0 1023888
03:00+5ene41089100 0.1 1024760
06:00+6ene4988100 0.1 1024892
09:00+6ene4986100 0.1 1024802
12:00+6ene5986100 0.1 1024989
15:00+5ene5991100 0.4 1024980
18:00+5ene51096100 0.1 1023762
21:00+5ene41090100 0.1 1023965
20 april, tue
tue2000:00+4ene41097100 0.1 1022859
03:00+4ene41097100 0.3 1020810
06:00+4ene51183100 0.1 1019710
09:00+3ene51293100 0.1 1018622
12:00+2ene51296100 0.2 1017568
15:00+2ene51396100 0.9 1014566
18:00+2ne51497100 4.2 1010649
21:00+2ne61597100 10.6 1004978
21 april, wed
wed2100:00+5ene61496100 6.1 9991208
03:00+5ene61496100 8.0 995670
06:00+7ene61496100 0.4 993712
09:00+7ese51094100 2.9 9921176
12:00+2ese3897100 1.7 993536
15:00+3ssw51197100 2.4 996798
18:00+2sw71397100 2.0 1001923
21:00+3sw51197100 2.8 1005943